Погода в Астане

Погода в Астане : погода сейчас, прогноз погоды и архив. Всё, что Вы хотите узнать о погоде в Астане!

Хотите узнать прогноз погоды Астана? Тогда Вам сюда: Погода Астана

Поиск расширенной информации на нашем сайте:

Другие новости

Новости СМИ2

Главная страница сайта

Новости сайта

02.10.2013

Напоминаем, что на нашем новом сайте вы можете получить высокодетализированные прогнозы погоды по пунктам России, СНГ и мира (включающие важные для авиации метеовеличины, такие как направление и скорость ветра, видимость, явления погоды, количество и форма облачности, нижняя и верхняя граница облачности), а также ознакомиться с разнообразными материалами по авиационной метеорологии и подборкой полезных ссылок на эту тему.

Сайт Метеоцентр.Азия посвящён разработке технологий оптимизации авиаметеорологического обслуживания, включая проектирование и перспективное создание нескольких автоматизированных авиаметеорологических систем:
- система выпуска высокодетальных прогностических карт явлений погоды для нижнего воздушного пространства по России и ближнему зарубежью;
- система верификации прогнозов TAF (выпускаемых синоптиками официальных АМСГ РФ и ближнего зарубежья) и AUTOTAF (выпускаемых сайтом Метеоцентр.Азия) - выявление ошибок, онлайн-сопоставление с фактической погодой METAR, автоматическое внесение коррективов в прогнозы при резком отклонении фактической погоды от прогноза, подсчёт оправдываемости прогнозов по элементам и в целом;
- система обработки, анализа и отображения авиаметеорологической информации для применения провайдерами метеорологической информации.


Погода в Астане - сегодня

Время (UTC), дата Ветер
(°,м/с) 
Видим.   Явления Облачность Т
(°С)
Тd
(°С)
f(%) Тe
(°С)
Pmin
(гПа)
dP
(гПа)
Po
(мм)
O2
(г/м3)
Тmin Tmax R s Состояние
почвы
21 17.01.17 тихо ()   н/о  дым  ясно 
-18.1 -20.4 82 -18  1042.1  -0.5  746  323           
00 18.01.17 тихо ()   н/о  дымка  ясно 
-18.4 -20.7 82 -18  1041.5  -0.6  746  324           
03 18.01.17 тихо ()   0200 м  переохл. туман  ?/?  
-16.5 -18.7 83 -17  1040.6  -0.5  745  321        27  равномерный
сухой снег
100% 
06 18.01.17 тихо ()   1000 м  дымка{туман}  ясно 
-11.7 -13.4 87 -12  1039.6  -0.1  745  315  -18.9         
09 18.01.17 180 (Ю) 4000 м  дым  ясно 
-6.5 -11.1 70 -6  1037.1  -1.5  744  308           
12 18.01.17 тихо ()   1000 м  дым  ясно 
-11.3 -13.6 83 -11  1037.8  -0.2  744  314           
15 18.01.17 060 (СВ) н/о  дым  ясно 
-12.2 -14.5 83 -12  1036.9  -1  743  315    -5       
18 18.01.17 340 (С) н/о  дым  ясно 
-15.4 -17.2 86 -15  1036.9  -0.6  743  319    -5       
21 18.01.17 190 (Ю) н/о  дым  ясно 
-11.7 -13.7 85 -12  1034.7  -1.4  742  313           
00 19.01.17 180 (Ю) н/о  дым  ясно 
-15.3 -17.7 82 -15  1034.8  -0.6  741  318           
03 19.01.17 190 (Ю) 10 км    10/0 верхняя 
[Ci]
-16.7 -19.3 80 -19  1034.7  -0.3  741  319        27  равномерный
сухой снег
100% 
06 19.01.17 170 (Ю) 10 км    10/0 верхняя 
[Cs]
-14 -17.3 76 -14  1033.9  -0.3  741  316  -16.8         
09 19.01.17 210 (ЮЗ) 10 км    10/0 верхняя 
[Cs]
-11.8 -16.3 69 -14  1031.7  -1.7  739  313           
12 19.01.17 200 (Ю) 4000 м  слаб. снег  10/0 средняя 
[As op]
-12.2 -15.4 77 -14  1031.2  -0.6  739  313           
15 19.01.17 210 (ЮЗ) н/о  слаб. снег  10/9 300 м средняя 
[Frnb|As op]
-10 -12.3 83 -12  1029.6  -1.1  738  310    -10  0.1     
18 19.01.17 200 (Ю) н/о  слаб. снег  10/8 300 м средняя 
[Frnb|As op]
-9.5 -11.5 85 -12  1028.1  -1.4  737  309    -10  0.1     
21 19.01.17 200 (Ю) н/о  слаб. снег  10/0 средняя 
[As op]
-9.5 -11.4 86 -12  1026.1  -1.9  736  308           
00 20.01.17 200 (Ю) н/о  {снег}  ясно 
-14.8 -16.9 84 -17  1026.8  -0.2  736  315           
03 20.01.17 190 (Ю) 10 км    10/10 1110 м 
[Sc]
-16.1 -18.5 82 -18  1026.6  -0.4  735  316      0.3  27  равномерный
сухой снег
100% 
06 20.01.17 190 (Ю) 4000 м  слаб. снег  10/3 600 м средняя, верхняя 
[Sc|Ac und|Ci]
-14.9 -18 77 -19  1026.7  0.3  735  315  -16.3    0.3     
09 20.01.17 210 (ЮЗ) 10 км  позёмок{снег}  ясно 
-13.3 -17.3 72 -17  1024.8  -1.6  734  312           
12 20.01.17 200 (Ю) 10 км  позёмок{снег}  10/0 средняя 
[Ac As]
-15.2 -18 79 -19  1024.2  -0.9  734  314           
15 20.01.17 200 (Ю) н/о  позёмок  10/0 средняя 
[Ac und]
-13.6 -16 82 -18  1022.5  -1.3  733  312    -12.9  0.0     
18 20.01.17 190 (Ю) н/о  слаб. снег  10/0 средняя 
[Ac und]
-11.3 -13.9 81 -16  1020.2  -1.8  731  309    -12.9  0.0     
21 20.01.17 210 (ЮЗ) н/о  слаб. снег  10/10 1000 м 
[Sc]
-10.9 -13.7 80 -14  1018.9  -1.2  730  308           
Время (UTC), дата Ветер
(°,м/с) 
Видим.   Явления Облачность Т
(°С)
Тd
(°С)
f(%) Тe
(°С)
Pmin
(гПа)
dP
(гПа)
Po
(мм)
O2
(г/м3)
Тmin Tmax R s Состояние
почвы

Для получения пояснительной информации подведите курсор к названию столбца.

ПОГОДА в Астане - архив

Всё, что Вы хотите узнать о погоде в Астане - удобно и подробно!

Выберите нужную дату (начиная с 1 января 2015* года) и нажмите кнопку "Найти".
Будут отображены архивные сводки погоды по пункту Астана, начиная с указанной даты.


Отображать данные в формате CSV (для использования в таблицах Excel)


Внимание! Наш архив погоды предназначен исключительно для личного некоммерческого использования в познавательных целях. Если Вам необходимы официальные справки о состоянии погоды (для производственных, юридических, коммерческих и т.п. целей), обращайтесь в органы Росгидромета.

*Примечание: данная дата относится к архиву по метеостанциям СССР (Россия, СНГ, Балтия).
Архив по метеостанциям Зарубежной Европы и Азии (кроме Китая) хранится 10 дней, по другим регионам земного шара (Китай, Африка, Америка, Австралия, Океания) - 1 день.

Астана - район местоположения метеостанции


Название, широта, долгота, высота метеостанции:
Астана (город) 51.1°ш. 71.4°д. 350 м над ур. моря [Казахстан]

Дополнительная информация

В oтличие oт бoльшинства пoгoдных сайтoв мы публикуем пoдрoбную метеoинфoрмацию в детальнoм прoфессиoнальнoм фoрмате.

Характеристики температуры и влажнoсти вoздуха измеряются на высoте 2 м в тени вдали oт зданий и деревьев.
Скoрoсть ветра измеряется на высoте 10 м (на урoвне рoста челoвека скoрoсть ветра ниже в 1.5-2 раза). Если метеoстанция нахoдится в гoрoде или в лесу, тo скoрoсть ветра занижена на 2-4 м/с пo сравнению с oткрытым местoм. Скoрoсть ветра над акватoриями крупных рек и oзёр, а также на вершинах хoлмoв на 2-5 м/с выше, чем в oбычных услoвиях.
Атмoсфернoе давление в разных тoчках местнoсти мoжет значительнo oтличаться oт давления на метеoстанции, в зависимoсти oт услoвий рельефа (при пoдъёме на 10 м давление пoнижается примернo на 1 мм рт.ст.).